Regional Weather Roundup
Issued by NWS

Home | Current Version | Previous Version | Graphics & Text | Print | Product List | Glossary On
Versions: 1 2 3 4 5 6 7 8 9 10 11 12 13 14 15 16 17 18 19 20 21 22 23 24 25 26 27 28 29 30 31 32 33 34 35 36 37 38 39 40 41 42 43 44 45 46 47 48 49 50
000
ASUS43 KIND 310209
RWRIN

WEATHER ROUNDUP FOR INDIANA
NATIONAL WEATHER SERVICE INDIANAPOLIS IN
900 PM EST FRI JAN 30 2015

NOTE: "FAIR" INDICATES FEW OR NO CLOUDS BELOW 12,000 FEET WITH NO
SIGNIFICANT WEATHER AND/OR OBSTRUCTIONS TO VISIBILITY.

* - STATION DOES NOT REPORT WEATHER SUCH AS PRECIPITATION OR FOG.

+ - STATION NOT QUALITY CONTROLLED BY THE NATIONAL WEATHER SERVICE.
    USE DATA WITH CAUTION...ESPECIALLY DEWPOINT AND RELATIVE
    HUMIDITY OBSERVATIONS.

INZ001>003-010>013-019-020-310300-
NORTHWEST INDIANA

CITY           SKY/WX    TMP DP  RH WIND       PRES   REMARKS
GARY /AIRPORT/ CLEAR     21  14  73 CALM      30.43F
KNOX *+        CLEAR     19   9  63 CALM      30.42F
LA PORTE +     CLOUDY    19  15  85 CALM      30.42F
MICHIGAN CITY+ PTCLDY    19  12  73 CALM      30.43F
MONTICELLO +   CLEAR     22  18  84 CALM      30.44F
RENSSELAER +   CLEAR     27  21  80 CALM      30.43F
VALPARAISO     CLEAR     22  14  71 S3        30.42F

$$

LMZ046-743>745-310300-
SOUTHERN LAKE MICHIGAN

STATION/POSITION TIME  TEMP WIND        PRES
                       AIR  DIR/SP/G
                 (UTC) (F)  (DEG/KT/KT) (MB)
MICHIGAN CITY    0200   23  110/  3/  4   N/A

$$

INZ004-005-014>016-021>024-310300-
NORTH CENTRAL INDIANA

CITY           SKY/WX    TMP DP  RH WIND       PRES   REMARKS
ELKHART        CLEAR     19  14  79 CALM      30.42F
GOSHEN         CLEAR     20  14  77 CALM      30.42S
LOGANSPORT +   CLEAR     23  19  86 CALM      30.45F
PERU/GRISSOM   CLEAR     21  17  83 S3        30.43S
ROCHESTER +    CLEAR     23  19  86 S3        30.43F
SOUTH BEND     CLEAR     20  13  74 CALM      30.43S
WARSAW +       CLEAR     19  16  86 CALM      30.42F

$$

INZ006>009-017-018-025>027-310300-
NORTHEAST INDIANA

CITY           SKY/WX    TMP DP  RH WIND       PRES   REMARKS
ANGOLA *+      MOCLDY    16  12  86 CALM      30.40S
AUBURN +       PTCLDY    21  12  68 CALM      30.42S
FORT WAYNE     PTCLDY    21  14  74 CALM      30.44R
HUNTINGTON +   CLEAR     20  13  74 CALM      30.43S

$$

INZ028-029-035-036-043>045-051>053-310300-
WEST CENTRAL INDIANA

CITY           SKY/WX    TMP DP  RH WIND       PRES   REMARKS
GREENCASTLE +  CLEAR     25  14  63 CALM      30.44S
LAFAYETTE      CLEAR     21  17  84 CALM      30.45S
TERRE HAUTE    CLEAR     26  20  77 SW3       30.46S

$$

INZ030>032-037>040-046>048-054>057-064-065-310300-
CENTRAL INDIANA

CITY           SKY/WX    TMP DP  RH WIND       PRES   REMARKS
CP ATTERBURY + CLEAR     23  18  80 CALM      30.45F
COLUMBUS       CLEAR     25  18  74 CALM      30.45F
FRANKFORT +    CLEAR     22  19  89 SE3       30.45F
GREENWOOD *+   CLEAR     25  14  63 CALM      30.45S
INDIANAPOLIS   CLEAR     24  15  68 CALM      30.44S
-EAGLE CREEK   CLEAR     21  16  81 CALM      30.44S
KOKOMO *+      CLEAR     23  16  74 W3        30.44S
MARION +       CLEAR     21  17  86 CALM      30.45R
MT COMFORT *+  CLEAR     23  23 100 CALM      30.44S
SHELBYVILLE    CLEAR     25  18  74 E3        30.44S
ZIONSVILLE +   CLEAR     22  17  79 CALM      30.44S

$$

INZ033-034-041-042-049-050-058-059-310300-
EAST CENTRAL INDIANA

CITY           SKY/WX    TMP DP  RH WIND       PRES   REMARKS
MUNCIE         CLEAR     21  15  78 CALM      30.44R

$$

INZ060-061-067>069-081>083-085>088-310300-
SOUTHWEST INDIANA

CITY           SKY/WX    TMP DP  RH WIND       PRES   REMARKS
EVANSVILLE     CLEAR     30  21  69 N5        30.48F WCI  25
HUNTINGBURG *+ CLEAR     27  18  69 N3        30.47S
WASHINGTON +   CLEAR     25  16  69 CALM      30.45F

$$

INZ062-063-066-070>080-084-089>092-310300-
SOUTH CENTRAL AND SOUTHEAST INDIANA

CITY           SKY/WX    TMP DP  RH WIND       PRES   REMARKS
BLOOMINGTON    CLEAR     24  17  74 CALM      30.44S
NORTH VERNON + CLEAR     25  18  74 CALM      30.45F
SEYMOUR +      CLEAR     25  18  74 CALM      30.45F

$$




USA.gov is the U.S. government's official web portal to all federal, state and local government web resources and services.